[[{"header":{"parameterUnit":"m.s-1","parameterCategory":1,"la1":30.2991,"la2":30.254,"lo1":-89.0895,"lo2":-89.0444,"dy":0.0017,"dx":0.0017,"nx":28,"ny":28,"refTime":"2023-10-12T03:00:00:Z","depth":0,"parameterNumber":2,"parameterNumberName":"U-component_of_WINDS"},"data":[0,0,0,0,0,0,0,0,0,0,0,0,0,0,0,0,0,0,0,0,0,0,0,0,0,0,0,0,0,0,0,0,0,0,0,0,0,0,0,0,0,0,0,0,0,0,0,0,0,0,0,0,0,0,0,0,0,0,-0.1159,-0.1159,0,-0.117,-0.117,-0.117,-0.1185,-0.1186,-0.1186,-0.1186,-0.1198,-0.1198,-0.1198,0,0,0,0,0,0,0,0,0,0,0,0,0,-0.1151,-0.1151,-0.1159,-0.1159,-0.1159,-0.117,-0.117,-0.117,-0.1185,-0.1186,-0.1186,-0.1186,-0.1198,-0.1198,-0.1198,0,0,0,0,0,0,0,0,0,0,0,0,0,-0.1157,-0.1151,-0.1159,-0.1168,-0.1169,-0.117,-0.117,-0.117,-0.1185,-0.1186,-0.1186,-0.1186,-0.1198,-0.1198,-0.1198,-0.1191,0,0,-0.1199,-0.1199,0,0,0,0,0,0,0,0,-0.1157,-0.1158,-0.1166,-0.1167,-0.1168,-0.1177,-0.1172,-0.1177,-0.1185,-0.1179,-0.1186,-0.1187,-0.1191,-0.1191,-0.1193,-0.1192,-0.1192,-0.1199,-0.1199,-0.1199,-0.1199,0,0,0,0,0,0,0,-0.1156,-0.1157,-0.1163,-0.1167,-0.1168,-0.1171,-0.1173,-0.1173,-0.1183,-0.118,-0.1181,-0.1182,-0.1191,-0.1193,-0.1193,-0.1193,-0.1199,-0.1199,-0.1199,-0.1199,-0.1186,-0.1186,0,0,0,0,0,0,-0.1155,-0.1157,-0.1163,-0.1164,-0.1163,-0.1171,-0.1173,-0.1174,-0.1183,-0.1184,-0.1182,-0.1183,-0.1192,-0.1193,-0.1194,-0.1186,-0.1199,-0.1199,-0.1199,-0.1186,-0.1186,-0.1185,0,0,0,0,0,0,-0.1154,-0.1155,-0.1162,-0.116,-0.1162,-0.1171,-0.1172,-0.1174,-0.1175,-0.1184,-0.1186,-0.1181,-0.1192,-0.1193,-0.1192,-0.1186,-0.1199,-0.1199,-0.1187,-0.1186,-0.1186,-0.117,0,0,0,0,0,0,-0.1154,-0.1155,-0.1152,-0.116,-0.1162,-0.116,-0.1172,-0.1174,-0.1175,-0.1176,-0.1184,-0.1186,-0.1193,-0.1191,-0.1192,-0.1187,-0.1199,-0.1187,-0.1187,-0.1186,-0.1171,-0.1169,-0.1167,0,0,0,0,0,-0.1154,-0.1148,-0.1152,-0.1153,-0.1159,-0.116,-0.1161,-0.1169,-0.1175,-0.1172,-0.1178,-0.1185,-0.1187,-0.1191,-0.1192,-0.1187,-0.1188,-0.1187,-0.1186,-0.1172,-0.117,-0.1167,0,0,0,0,0,0,-0.1139,-0.1149,-0.1154,-0.1151,-0.1154,-0.1163,-0.116,-0.1166,-0.1169,-0.117,-0.118,-0.1182,-0.1178,-0.1182,-0.1187,-0.118,-0.1188,-0.1187,-0.1178,-0.1175,-0.1173,-0.1173,-0.1199,0,0,0,0,0,-0.1136,-0.1136,-0.1144,-0.114,-0.1142,-0.115,-0.1151,-0.1157,-0.1162,-0.1163,-0.1169,-0.1173,-0.1174,-0.1175,-0.1177,-0.1172,-0.1173,-0.1168,-0.1167,-0.1165,-0.1164,-0.1161,-0.1159,-0.1182,-0.1182,-0.1182,0,0,-0.1129,-0.1134,-0.1133,-0.1138,-0.1141,-0.1141,-0.1152,-0.1151,-0.1151,-0.1163,-0.1162,-0.1166,-0.1171,-0.1168,-0.1166,-0.1171,-0.1158,-0.1164,-0.1162,-0.1162,-0.116,-0.1158,-0.1156,-0.1182,-0.1182,-0.1182,0,0,-0.1115,-0.1119,-0.1116,-0.1119,-0.1125,-0.113,-0.1129,-0.1136,-0.114,-0.1138,-0.1147,-0.1147,-0.1149,-0.1152,-0.1154,-0.1141,-0.1148,-0.1141,-0.1131,-0.1128,-0.1126,-0.1125,-0.112,-0.1118,-0.114,-0.114,-0.114,0,-0.1106,-0.1106,-0.1114,-0.1113,-0.1114,-0.1125,-0.1121,-0.1124,-0.113,-0.113,-0.1135,-0.1138,-0.1142,-0.1139,-0.1135,-0.1137,-0.1136,-0.114,-0.1126,-0.1124,-0.1123,-0.1118,-0.1116,-0.1139,-0.1139,-0.1139,-0.1139,0,-0.1093,-0.1093,-0.109,-0.1095,-0.1096,-0.1094,-0.1101,-0.1102,-0.1107,-0.1112,-0.111,-0.1115,-0.1118,-0.1118,-0.1123,-0.1115,-0.1118,-0.1124,-0.1133,-0.112,-0.1115,-0.1114,-0.1138,-0.1138,-0.1139,-0.1139,0,0,-0.1072,-0.1081,-0.1079,-0.1081,-0.1087,-0.1087,-0.1085,-0.1088,-0.1087,-0.1091,-0.1089,-0.109,-0.1096,-0.1098,-0.1104,-0.1101,-0.109,-0.1107,-0.1108,-0.1104,-0.1081,-0.1076,-0.1074,-0.1094,-0.1094,-0.1093,-0.108,0,-0.106,-0.1057,-0.1064,-0.1059,-0.1059,-0.1068,-0.1067,-0.107,-0.1074,-0.1075,-0.1079,-0.108,-0.1087,-0.1088,-0.1086,-0.1091,-0.1085,-0.1092,-0.1093,-0.1093,-0.1091,-0.1072,-0.1067,-0.1054,-0.1079,-0.1078,-0.1078,0,-0.1046,-0.1048,-0.1043,-0.1048,-0.1048,-0.1047,-0.1049,-0.1049,-0.1053,-0.1056,-0.1058,-0.1065,-0.1063,-0.1071,-0.1068,-0.1073,-0.1073,-0.1076,-0.1075,-0.1076,-0.1085,-0.1072,-0.105,-0.1048,-0.1076,-0.1076,-0.1076,0,-0.1031,-0.1032,-0.1029,-0.103,-0.1037,-0.1035,-0.1038,-0.1042,-0.1043,-0.1045,-0.1045,-0.1047,-0.1048,-0.1049,-0.1056,-0.1061,-0.1052,-0.1061,-0.1055,-0.1055,-0.1053,-0.1053,-0.1031,-0.1053,-0.1053,-0.1053,-0.1053,0,-0.1016,-0.1013,-0.1022,-0.102,-0.1017,-0.1025,-0.1021,-0.1024,-0.1028,-0.1027,-0.1035,-0.1034,-0.1043,-0.1042,-0.1048,-0.1044,-0.1045,-0.1047,-0.1049,-0.1047,-0.1046,-0.1047,-0.1048,-0.1052,-0.1053,-0.1053,-0.1053,0,-0.0999,-0.1005,-0.1002,-0.1008,-0.101,-0.1007,-0.1012,-0.1011,-0.1015,-0.1013,-0.1014,-0.1021,-0.1021,-0.1027,-0.1029,-0.1032,-0.1027,-0.103,-0.1026,-0.1027,-0.102,-0.1021,-0.0999,-0.0996,-0.1019,-0.1019,-0.1019,0,-0.099,-0.0987,-0.0993,-0.0992,-0.0994,-0.0994,-0.0995,-0.1002,-0.1002,-0.1006,-0.1004,-0.1004,-0.1005,-0.1005,-0.101,-0.1011,-0.1014,-0.1006,-0.1014,-0.1012,-0.1014,-0.1014,-0.1014,-0.1005,-0.1004,-0.1004,-0.1004,0,-0.0972,-0.0975,-0.0976,-0.0977,-0.0977,-0.0978,-0.098,-0.098,-0.0988,-0.0987,-0.0987,-0.0988,-0.0989,-0.0989,-0.0991,-0.0994,-0.1,-0.1001,-0.1,-0.0998,-0.0995,-0.0996,-0.1021,-0.1002,-0.1002,-0.1002,-0.1002,-0.1002,-0.0959,-0.0957,-0.096,-0.096,-0.0962,-0.0963,-0.0962,-0.0966,-0.0966,-0.0967,-0.0972,-0.0971,-0.0974,-0.0977,-0.0979,-0.0978,-0.0982,-0.098,-0.098,-0.0979,-0.0978,-0.0995,-0.0978,-0.0978,-0.0978,-0.0979,-0.0979,0,-0.0942,-0.0944,-0.0944,-0.0946,-0.0946,-0.0951,-0.0953,-0.0953,-0.0952,-0.0954,-0.0955,-0.0954,-0.0954,-0.0959,-0.096,-0.0958,-0.0961,-0.0958,-0.0958,-0.0959,-0.0974,-0.0975,-0.0956,-0.0956,-0.0956,-0.0956,-0.0956,-0.0956,-0.0933,-0.093,-0.0933,-0.093,-0.0933,-0.0932,-0.0932,-0.0933,-0.0935,-0.0934,-0.0934,-0.0937,-0.0941,-0.0941,-0.0942,-0.0943,-0.0943,-0.0939,-0.0941,-0.0956,-0.0958,-0.096,-0.0961,-0.0939,-0.0939,-0.0926,-0.0926,-0.0926]},{"header":{"parameterUnit":"m.s-1","parameterCategory":1,"la1":30.2991,"la2":30.254,"lo1":-89.0895,"lo2":-89.0444,"dy":0.0017,"dx":0.0017,"nx":28,"ny":28,"refTime":"2023-10-12T03:00:00:Z","depth":0,"parameterNumber":3,"parameterNumberName":"V-component_of_WINDS"},"data":[0,0,0,0,0,0,0,0,0,0,0,0,0,0,0,0,0,0,0,0,0,0,0,0,0,0,0,0,0,0,0,0,0,0,0,0,0,0,0,0,0,0,0,0,0,0,0,0,0,0,0,0,0,0,0,0,0,0,-3.7232,-3.7233,0,-3.7249,-3.7249,-3.7249,-3.7233,-3.7233,-3.7232,-3.7231,-3.7246,-3.7246,-3.7247,0,0,0,0,0,0,0,0,0,0,0,0,0,-3.7185,-3.7186,-3.7232,-3.7233,-3.7233,-3.7249,-3.7249,-3.7249,-3.7233,-3.7233,-3.7232,-3.7231,-3.7245,-3.7246,-3.7248,0,0,0,0,0,0,0,0,0,0,0,0,0,-3.7204,-3.7186,-3.7232,-3.7227,-3.7227,-3.7249,-3.7249,-3.725,-3.7234,-3.7233,-3.7232,-3.7231,-3.7245,-3.7246,-3.7248,-3.7276,0,0,-3.7252,-3.7253,0,0,0,0,0,0,0,0,-3.7203,-3.7205,-3.7227,-3.7227,-3.7227,-3.7238,-3.7238,-3.7258,-3.7234,-3.7231,-3.7231,-3.723,-3.7244,-3.7245,-3.725,-3.7276,-3.7277,-3.7252,-3.7253,-3.7254,-3.7254,0,0,0,0,0,0,0,-3.7201,-3.7205,-3.7239,-3.7228,-3.7227,-3.7223,-3.7224,-3.7241,-3.7242,-3.7231,-3.723,-3.7232,-3.7243,-3.7249,-3.725,-3.7277,-3.7252,-3.7253,-3.7254,-3.7255,-3.7328,-3.7329,0,0,0,0,0,0,-3.7201,-3.7204,-3.7238,-3.7239,-3.7212,-3.7224,-3.7226,-3.7235,-3.7242,-3.7242,-3.7233,-3.7231,-3.7247,-3.7249,-3.7251,-3.7285,-3.7254,-3.7255,-3.7256,-3.7327,-3.7328,-3.7329,0,0,0,0,0,0,-3.72,-3.7204,-3.7238,-3.7221,-3.7225,-3.7226,-3.7237,-3.7236,-3.7242,-3.7244,-3.7243,-3.7239,-3.7246,-3.7249,-3.727,-3.7285,-3.7256,-3.7257,-3.7325,-3.7327,-3.7329,-3.7353,0,0,0,0,0,0,-3.7199,-3.7204,-3.7215,-3.7222,-3.7226,-3.7257,-3.7238,-3.7237,-3.7245,-3.7243,-3.7249,-3.7249,-3.7246,-3.7268,-3.7271,-3.7287,-3.7258,-3.7324,-3.7326,-3.7328,-3.735,-3.7355,-3.7358,0,0,0,0,0,-3.7197,-3.722,-3.7216,-3.722,-3.724,-3.7258,-3.7261,-3.7257,-3.7246,-3.7257,-3.7258,-3.7249,-3.7283,-3.727,-3.7274,-3.729,-3.7323,-3.7326,-3.7328,-3.7349,-3.7354,-3.7358,0,0,0,0,0,0,-3.7214,-3.7221,-3.7216,-3.7242,-3.725,-3.7255,-3.7269,-3.7263,-3.7273,-3.7271,-3.7265,-3.7266,-3.7289,-3.7291,-3.7277,-3.7318,-3.7301,-3.7304,-3.7315,-3.7321,-3.7325,-3.7324,-3.7259,0,0,0,0,0,-3.7221,-3.7236,-3.7241,-3.7263,-3.7267,-3.7268,-3.7275,-3.7272,-3.728,-3.7282,-3.7285,-3.7292,-3.7304,-3.7312,-3.7324,-3.7351,-3.7352,-3.7363,-3.7367,-3.7371,-3.7374,-3.7389,-3.7394,-3.7337,-3.7337,-3.7337,0,0,-3.7234,-3.724,-3.725,-3.7267,-3.7272,-3.7288,-3.727,-3.7287,-3.7298,-3.7284,-3.7305,-3.7308,-3.7315,-3.7339,-3.735,-3.7342,-3.739,-3.7374,-3.7376,-3.7378,-3.7392,-3.7397,-3.7402,-3.7339,-3.7338,-3.7338,0,0,-3.7268,-3.7274,-3.7294,-3.7301,-3.731,-3.731,-3.7315,-3.7322,-3.7323,-3.7344,-3.7335,-3.7348,-3.7369,-3.7375,-3.738,-3.7418,-3.741,-3.7421,-3.7443,-3.7457,-3.7462,-3.7466,-3.748,-3.7485,-3.7424,-3.7424,-3.7424,0,-3.7284,-3.7308,-3.7305,-3.7323,-3.733,-3.7321,-3.7341,-3.7347,-3.7359,-3.7364,-3.7355,-3.7382,-3.7386,-3.7412,-3.7422,-3.7426,-3.7432,-3.7421,-3.7462,-3.7466,-3.7469,-3.7483,-3.7488,-3.7426,-3.7426,-3.7425,-3.7425,0,-3.7327,-3.7344,-3.7359,-3.7372,-3.7382,-3.74,-3.74,-3.741,-3.7406,-3.7407,-3.7429,-3.7434,-3.7446,-3.7452,-3.7448,-3.7478,-3.7473,-3.7463,-3.7446,-3.7476,-3.7489,-3.7494,-3.7428,-3.7427,-3.7427,-3.7426,0,0,-3.7371,-3.7384,-3.739,-3.7397,-3.7407,-3.7419,-3.7437,-3.7451,-3.746,-3.7469,-3.7484,-3.7503,-3.7494,-3.7501,-3.7497,-3.751,-3.754,-3.7498,-3.7499,-3.7507,-3.7575,-3.7583,-3.7589,-3.7535,-3.7536,-3.7537,-3.7574,0,-3.7406,-3.7439,-3.7438,-3.7469,-3.7484,-3.7476,-3.7492,-3.7499,-3.7501,-3.7514,-3.7515,-3.7529,-3.7516,-3.752,-3.7532,-3.7534,-3.7554,-3.7531,-3.7549,-3.755,-3.7548,-3.7595,-3.7603,-3.7639,-3.7579,-3.758,-3.758,0,-3.745,-3.7463,-3.7496,-3.7505,-3.7512,-3.7526,-3.7539,-3.7552,-3.756,-3.756,-3.7569,-3.7563,-3.7582,-3.7564,-3.759,-3.7574,-3.7581,-3.7583,-3.7584,-3.7586,-3.7567,-3.7599,-3.765,-3.7655,-3.7588,-3.7587,-3.7587,0,-3.748,-3.7505,-3.7528,-3.7534,-3.7545,-3.7556,-3.7561,-3.7569,-3.7577,-3.7588,-3.7594,-3.7606,-3.7613,-3.7623,-3.7621,-3.7608,-3.7647,-3.7629,-3.7647,-3.7648,-3.7656,-3.7656,-3.771,-3.766,-3.766,-3.766,-3.7659,0,-3.752,-3.754,-3.7542,-3.7557,-3.758,-3.7578,-3.76,-3.7604,-3.7611,-3.7626,-3.7618,-3.7632,-3.7628,-3.7641,-3.764,-3.7661,-3.7664,-3.7665,-3.7664,-3.7666,-3.7666,-3.7671,-3.7668,-3.7661,-3.7661,-3.766,-3.766,0,-3.7557,-3.7559,-3.7584,-3.7593,-3.7596,-3.7613,-3.762,-3.7634,-3.7635,-3.7654,-3.7658,-3.766,-3.7675,-3.7674,-3.7691,-3.769,-3.7717,-3.7713,-3.7714,-3.7714,-3.7733,-3.7731,-3.7792,-3.78,-3.7744,-3.7745,-3.7745,0,-3.7582,-3.7598,-3.761,-3.762,-3.7626,-3.7642,-3.7651,-3.765,-3.766,-3.7672,-3.7684,-3.7699,-3.7711,-3.7736,-3.7738,-3.7751,-3.7748,-3.7768,-3.775,-3.7751,-3.7749,-3.7748,-3.775,-3.7772,-3.7773,-3.7773,-3.7774,0,-3.7627,-3.7628,-3.7642,-3.7658,-3.767,-3.7681,-3.7692,-3.77,-3.77,-3.7711,-3.7728,-3.7737,-3.7756,-3.7771,-3.7783,-3.7787,-3.7781,-3.7779,-3.7784,-3.7787,-3.7787,-3.7788,-3.7725,-3.7778,-3.7778,-3.7777,-3.7777,-3.7777,-3.7659,-3.7674,-3.7685,-3.7702,-3.771,-3.772,-3.7734,-3.7738,-3.7752,-3.7768,-3.7766,-3.7785,-3.7793,-3.781,-3.7815,-3.7829,-3.7822,-3.7829,-3.7831,-3.7833,-3.7836,-3.7785,-3.7831,-3.7831,-3.7831,-3.7831,-3.7831,0,-3.7704,-3.7712,-3.7727,-3.7743,-3.7757,-3.775,-3.7762,-3.7773,-3.779,-3.78,-3.7812,-3.7832,-3.7847,-3.7851,-3.7865,-3.7875,-3.7873,-3.7879,-3.7879,-3.788,-3.7841,-3.7836,-3.7881,-3.7881,-3.7881,-3.7881,-3.7881,-3.7881,-3.773,-3.7754,-3.7757,-3.7785,-3.7792,-3.7811,-3.7819,-3.7828,-3.7836,-3.7858,-3.7871,-3.7874,-3.7882,-3.7897,-3.791,-3.7911,-3.7916,-3.7924,-3.7924,-3.7888,-3.7883,-3.7878,-3.7873,-3.7926,-3.7926,-3.7962,-3.7962,-3.7963]}]]